Regional Weather Roundup
Issued by NWS New Orleans/Baton Rouge, LA

Home | Current Version | Previous Version | Text Only | Print | Product List | Glossary On
Versions: 1 2 3 4 5 6 7 8 9 10 11 12 13 14 15 16 17 18 19 20 21 22 23 24 25 26 27 28
000
ASUS44 KLIX 221813
RWRLIX
NEW ORLEANS REGIONAL WEATHER ROUNDUP
NATIONAL WEATHER SERVICE NEW ORLEANS LA
100 PM CDT SUN OCT 22 2017

NOTE: "FAIR" INDICATES FEW OR NO CLOUDS BELOW 12,000 FEET WITH NO
      SIGNIFICANT WEATHER AND/OR OBSTRUCTIONS TO VISIBILITY.
      SKY/WX - SKY CONDITION AND SIGNIFICANT WEATHER.
      TMP - AIR TEMPERATURE.     DP    - DEWPOINT TEMPERATURE.
      RH  - RELATIVE HUMIDITY.   PRES  - PRESSURE.
      HI  - HEAT INDEX.          WCI   - WIND CHILL INDEX.

*  THESE STATIONS ARE NOT NWS OR FAA STATIONS AND ARE NOT UNDER
   NWS QUALITY CONTROL.

LAZ038-040-048-061>063-065>067-069-221900-
SOUTHEAST LOUISIANA

CITY           SKY/WX    TMP DP  RH WIND       PRES   REMARKS
N.O. INTL ARPT CLOUDY    67  64  90 NW16G29   30.07F
6HR MIN TEMP:  65; 6HR MAX TEMP:  83; 6HR PCP:  0.24;

N.O. LAKEFRONT CLOUDY   N/A N/A N/A MISG      30.05R
N.O. DOWNTOWN* LGT RAIN  69  63  81 N10G22    30.07F
6HR MIN TEMP:  67; 6HR MAX TEMP:  84; 6HR PCP:  0.25;

RESERVE*       CLOUDY    68  61  77 NW10G17   30.09F
6HR MIN TEMP:  64; 6HR MAX TEMP:  82;

SLIDELL        LGT RAIN  67  62  84 NW13G30   30.04R
6HR MIN TEMP:  67; 6HR MAX TEMP:  76; 6HR PCP:  0.62;

BATON ROUGE    CLOUDY    68  58  70 W10       30.12F
6HR MIN TEMP:  62; 6HR MAX TEMP:  77; 6HR PCP:  0.07;

BOOTHVILLE     PTSUNNY   87  78  74 S10       30.01F HX 100
6HR MIN TEMP:  80; 6HR MAX TEMP:  88; 6HR PCP:  0.03;

BELLE CHASSE   LGT RAIN  73  72  95 NW25G39   30.07R
BOGALUSA*      CLOUDY    67  63  85 N7        30.07S
6HR MIN TEMP:  67; 6HR MAX TEMP:  76; 6HR PCP:  1.62;

GALLIANO*      HVY RAIN  68  59  73 NW29G39   30.07R
6HR MIN TEMP:  68; 6HR MAX TEMP:  84; 6HR PCP:  0.04;

NEW ROADS*     CLOUDY    65  58  78 NW7       30.13S
6HR MIN TEMP:  60; 6HR MAX TEMP:  72; 6HR PCP:  0.26;

GONZALES*      CLOUDY    69  57  67 NW14G24   30.10F
6HR MIN TEMP:  63; 6HR MAX TEMP:  80; 6HR PCP:  0.01;

HAMMOND*       CLOUDY    64  63  94 NW13      30.08F
HOUMA*         NOT AVBL
PORT FOURCHON* PTCLDY    82  77  83 W10       30.02F

$$

MSZ070-080>082-221900-
SOUTHERN MISSISSIPPI

CITY           SKY/WX    TMP DP  RH WIND       PRES   REMARKS
MCCOMB         CLOUDY    67  60  78 NW12      30.09S
6HR MIN TEMP:  63; 6HR MAX TEMP:  71; 6HR PCP:  0.23;

GULFPORT       HVY RAIN  74  72  93 SE7       30.02F FOG
6HR MIN TEMP:  70; 6HR MAX TEMP:  75; 6HR PCP:  3.69;

BILOXI         LGT RAIN  72  70  94 NE5       30.01F
6HR MIN TEMP:  71; 6HR MAX TEMP:  76; 6HR PCP:  2.14;

PASCAGOULA     TSTM      70  68  93 N3        30.04F FOG
6HR MIN TEMP:  70; 6HR MAX TEMP:  76; 6HR PCP:  2.89;

STENNIS ARPT*  RAIN      72  72 100 N9        30.05R

$$

COASTAL OBSERVATIONS
LAKE AND NEARSHORE STATIONS

STATION/POSITION TIME  TEMP    WIND        PRES    WAVE
                       AIR SEA DIR/SP/G            HT/PER
                 (UTC) (F)     (DEG/KT/KT) (MB)    (FT/S)
PASCAGOULA       1742   70      30/  8/ 18 1016.1
WAVELAND YACHT   1742   74 74  170/  3/  5 1016.1
GRAND ISLE       1742   81 79  230/  8/ 11 1016.7
SOUTHWEST PASS   1736          180/  4/  5   N/A
NEW CANAL        1742   69 76  350/  6/ 24 1018.0
SHELL BEACH      1742   81 78  190/ 14/ 17 1015.8

OFFSHORE STATIONS

STATION/POSITION TIME  TEMP    WIND        PRES    WAVE
                       AIR SEA DIR/SP/G            HT/PER
                 (UTC) (F)     (DEG/KT/KT) (MB)    (FT/S)
64 S DAUPHIN ISL 1750   81 81  120/ 19/ 23 1016.2    7/ 8

$$





USA.gov is the U.S. government's official web portal to all federal, state and local government web resources and services.